Probability
0 0 0 0 0 0 0 0 0 0 0 0 0 0 0 0 0 0 0 0 0 0 0 0 0 0 0 0 0 0 0 0 0 0 0 0 0 0 0 0 0 0 0
0 0 0 0 0 0 0 0 0 0 0 0 0 0 0 0 0 0 0 0 0 0 0 0 0 0 0 0 0 0 0 0 0 0 0 0 0 0 0 0 0 0 0
0 0 0 0 0 0 0 0 0 0 0 0 0 0 0 0 0 0 0 0 0 0 0 0 0 0 0 0 0 0 0 0 0 0 0 0 0 0 0 0 0 0 0
0 0 0 0 0 0 0 0 0 0 0 0 0 0 0 0 0 0 0 0 0 0 0 0 0 0 0 0 0 0 0 0 0 0 0 0 0 0 0 0 0 0 0
0 0 0 0 0 0 0 0 0 0 0 0 0 0 0 0 0 0 0 0 0 0 0 0 0 0 0 0 0 0 0 0 0 0 0 0 0 0 0 0 0 0 0
0 0 0 0 0 0 0 0 0 0 0 0 0 0 0 0 0 0 0 0 0 0 0 0 0 0 0 0 0 0 0 0 0 0 0 0 0 0 0 0 0 0 0
0 0 0 0 0 0 0 0 0 0 0 0 0 0 0 0 0 0 0 0 0 0 0 0 0 0 0 0 0 0 0 0 0 0 0 0 0 0 0 0 0 0 0
0 0 0 0 0 0 0 0 0 0 0 0 0 0 0 0 0 0 0 0 0 0 0 0 0 0 0 0 0 0 0 0 0 0 0 0 0 0 0 0 0 0 0
0 0 0 0 0 0 0 0 0 0 0 0 0 0 0 0 0 0 1 1 1 1 0 0 0 0 0 0 0 0 0 0 0 0 0 0 1 1 0 0 0 0 0
0 0 0 0 0 0 0 1 1 0 0 0 0 1 0 0 0 1 2 3 3 2 1 1 1 0 0 0 0 0 0 0 0 0 0 1 2 2 1 0 0 0 0
0 0 0 0 0 0 1 2 2 2 2 2 3 4 3 1 1 2 6 9 7 3 2 2 2 1 0 0 2 2 1 0 0 0 2 5 6 3 1 0 0 0 0
0 0 1 1 0 0 0 1 2 4 8 9 9 12 10 6 4 3 9 16 12 5 3 3 3 2 1 1 3 4 2 0 0 0 5 13 12 5 1 0 0 0 0
1 1 2 2 2 2 1 1 2 6 13 16 18 22 21 16 11 8 11 14 11 7 5 5 6 4 3 2 3 3 2 1 2 3 10 18 16 6 1 0 0 0 0
2 2 4 6 8 9 8 8 8 11 18 23 28 32 31 28 22 19 21 17 12 10 10 11 11 9 6 3 2 2 3 5 7 11 18 20 15 6 1 0 0 0 0
4 5 8 12 18 25 28 28 25 24 25 28 33 37 39 37 31 32 38 35 24 20 24 26 23 19 16 10 7 7 9 11 14 21 27 23 16 10 4 0 0 0 0
8 9 13 21 32 43 50 49 42 34 30 30 34 37 39 40 41 43 48 48 42 41 48 50 45 40 36 30 25 25 24 23 25 30 34 31 25 18 10 5 4 4 4
15 17 22 29 41 55 62 59 49 38 33 35 39 41 41 41 46 51 51 53 57 60 66 69 67 64 60 54 50 49 47 42 40 40 42 43 39 30 22 17 16 15 14
28 31 35 38 45 58 66 64 53 43 41 43 46 47 46 42 43 49 51 53 60 67 73 76 77 77 75 69 65 61 60 56 50 47 48 50 49 41 34 31 30 29 26
46 45 45 46 48 55 62 63 57 49 46 45 45 45 43 38 37 42 46 48 57 69 76 77 78 81 80 73 63 56 54 55 53 48 45 46 47 43 37 37 35 31 29
58 54 49 47 47 48 50 51 48 42 37 33 32 33 33 30 31 35 39 42 49 61 68 69 72 77 80 72 58 50 49 50 49 45 39 38 39 36 33 35 35 31 28
61 57 50 43 39 38 37 35 34 29 22 16 16 17 19 20 23 29 34 36 40 46 50 55 62 69 74 72 65 57 51 47 45 41 37 36 33 29 28 32 36 36 36
60 55 47 37 29 26 25 23 22 18 10 5 6 7 8 10 14 20 26 29 30 33 36 42 53 63 68 71 72 66 55 46 42 39 38 37 33 29 27 28 34 38 38
52 46 37 29 22 19 17 14 12 8 4 1 1 2 3 5 7 11 16 20 23 25 27 33 44 55 61 67 71 71 63 51 44 39 38 39 38 34 29 25 24 27 28
35 31 27 24 22 20 18 14 9 5 2 0 0 0 1 1 3 5 8 12 16 18 21 25 33 45 54 59 65 72 70 62 53 43 38 38 39 35 31 26 22 21 21
22 21 22 24 28 29 27 25 21 13 7 4 2 1 0 0 1 2 3 7 10 14 18 22 28 36 43 49 57 66 70 68 61 51 43 43 42 37 33 31 28 24 22
19 18 20 25 32 36 35 36 34 23 13 9 5 2 1 1 2 2 2 5 9 12 17 22 26 31 36 44 52 58 66 67 61 54 50 50 49 43 37 34 30 26 22
Wind_Speed
14 18 20 16 15 14 13 13 13 14 14 13 13 12 11 11 10 9 8 7 7 7 7 7 7 7 7 8 8 9 9 8 8 8 8 8 7 7 7 7 6 8 9
16 19 20 17 15 14 14 13 13 13 13 13 12 12 11 10 9 8 7 7 6 6 6 6 6 6 6 7 7 7 7 7 7 7 7 8 7 5 5 4 3 8 8
17 19 19 17 16 15 14 13 13 13 13 12 12 11 10 10 9 8 7 6 6 5 5 5 5 5 5 5 5 6 6 6 6 5 6 7 9 6 5 4 2 6 7
17 17 17 18 16 15 14 13 13 13 12 12 11 10 10 9 8 8 7 6 5 5 4 4 4 4 4 4 4 4 4 4 5 6 8 3 5 9 5 5 6 6 7
16 16 17 19 17 16 14 14 13 12 12 11 11 10 9 9 8 7 6 5 5 4 4 4 3 3 3 3 4 4 4 4 5 10 5 3 3 8 6 7 8 9 9
16 16 18 18 17 16 15 14 13 12 12 11 10 10 9 9 8 7 6 6 5 4 4 4 4 4 4 4 4 5 5 5 8 10 5 6 5 8 6 8 10 11 11
16 14 18 17 16 15 14 14 13 12 12 11 11 10 9 9 8 7 7 6 6 6 5 5 5 6 6 6 6 6 7 7 10 9 6 7 5 6 6 9 10 12 13
14 14 17 17 16 15 14 14 13 12 12 11 11 10 10 9 9 8 8 8 8 8 7 7 7 8 8 8 8 8 8 10 11 11 9 9 5 6 9 11 12 12 13
13 12 14 15 15 15 13 13 13 12 12 12 11 11 11 10 10 10 10 10 10 10 10 10 10 10 10 10 10 10 10 11 13 10 10 8 7 9 11 12 13 13 13
11 11 12 12 13 13 14 14 13 12 12 12 12 12 11 11 12 12 12 12 12 11 11 11 11 11 11 11 12 12 12 12 14 13 9 6 9 10 12 13 14 13 13
11 10 10 11 10 11 11 12 13 13 13 12 12 13 12 11 12 11 14 10 11 12 12 12 12 12 12 13 14 13 12 10 12 9 7 3 7 10 13 14 14 14 14
13 12 10 10 10 10 8 8 9 10 10 11 9 10 10 9 7 8 3 7 11 12 13 14 13 13 13 10 11 14 9 11 10 8 6 6 8 11 13 13 14 15 15
12 12 11 10 9 9 7 6 6 5 6 9 11 9 8 8 7 7 6 7 10 12 11 11 12 10 9 7 7 7 8 8 6 6 5 8 9 11 12 12 13 14 15
12 12 12 11 10 9 7 6 6 6 5 6 7 9 8 6 7 6 5 7 6 5 7 7 7 9 9 9 10 10 10 7 7 6 5 6 9 11 13 13 13 13 14
11 11 11 11 10 9 8 6 7 7 6 7 6 7 8 8 8 7 6 6 8 7 7 7 8 8 9 10 10 10 10 10 10 8 5 7 10 12 13 13 13 13 13
11 11 11 11 10 9 8 7 7 7 6 7 7 8 9 8 8 7 8 8 8 8 7 7 9 9 8 8 10 10 10 10 9 9 8 7 11 13 13 14 14 14 13
10 10 10 10 11 10 10 9 8 7 7 7 7 8 9 10 9 9 9 8 8 8 8 8 10 8 8 8 10 10 9 9 10 10 9 8 8 11 14 14 14 14 14
8 9 9 8 9 9 8 7 7 7 7 7 7 7 9 10 10 9 9 9 8 8 8 8 8 8 8 8 7 7 7 7 11 10 9 9 8 9 10 13 14 13 13
8 8 8 7 7 7 7 6 7 6 7 7 7 7 7 9 10 9 9 9 9 8 8 9 8 8 8 7 7 7 8 8 8 10 10 11 10 10 10 8 12 12 12
7 7 6 6 5 5 5 4 4 6 6 6 6 6 8 7 8 9 8 9 9 8 8 8 9 8 8 7 8 9 9 9 8 9 9 10 9 11 12 11 8 9 12
7 7 6 5 5 4 2 3 3 3 4 4 4 5 7 7 8 7 8 8 8 8 9 10 9 10 8 6 7 9 10 10 10 8 8 9 10 11 11 10 8 8 5
7 6 6 6 5 4 3 2 2 3 4 4 4 4 6 6 7 7 7 8 8 8 10 10 9 8 8 7 7 7 7 8 9 10 9 9 10 9 9 10 8 7 7
5 4 4 3 4 4 3 3 2 3 4 3 3 3 4 6 7 7 8 9 8 9 9 9 9 11 10 9 9 8 7 8 5 6 9 8 8 7 7 6 7 7 6
2 2 1 2 3 3 4 4 4 4 4 4 4 4 5 6 7 7 8 8 9 9 9 10 10 9 11 9 8 10 10 8 6 5 6 7 8 8 7 6 6 6 5
2 1 1 1 2 3 4 4 5 6 4 4 4 5 6 6 6 7 8 8 8 8 9 10 10 11 9 10 9 8 10 10 11 8 7 6 6 6 6 6 5 4 3
4 3 3 3 3 4 5 5 6 7 7 7 7 7 6 5 5 6 7 8 9 8 9 9 10 12 11 11 10 9 9 8 8 9 10 8 6 4 4 3 3 3 3
Wind_Direction
158 148 150 161 158 153 147 144 143 144 145 144 143 143 142 140 137 132 126 118 111 104 100 101 104 105 103 104 108 112 113 113 111 112 113 111 108 110 118 131 172 128 120
150 146 152 161 160 156 151 147 145 145 146 146 146 146 145 143 141 138 133 128 122 116 110 106 107 109 108 110 113 118 122 124 126 126 134 140 129 124 132 153 312 100 139
148 146 156 162 162 159 155 152 150 150 149 149 150 150 149 148 146 143 140 137 134 129 125 122 121 120 120 122 125 130 134 139 144 152 202 182 137 149 164 169 145 131 157
148 150 159 160 164 163 160 158 157 156 155 155 156 156 155 154 153 151 150 149 149 146 145 147 148 146 144 145 147 152 156 162 172 200 219 163 148 142 182 189 187 184 185
149 154 151 161 166 166 164 164 163 163 162 163 163 164 164 164 164 163 163 166 171 173 174 179 183 182 181 184 185 188 192 200 211 238 230 218 203 140 193 208 204 203 204
155 158 149 166 169 169 169 169 170 170 170 172 173 175 176 177 179 180 182 187 195 202 208 211 215 216 214 217 219 220 223 227 239 237 227 232 227 150 207 228 221 213 212
159 157 152 168 171 173 174 175 177 178 180 182 184 187 189 192 195 200 204 209 217 225 233 234 235 236 234 234 236 238 240 243 257 263 247 244 240 155 222 244 241 226 217
159 160 149 167 175 177 179 182 184 187 189 192 195 198 202 206 212 218 223 226 229 234 239 244 247 247 245 243 242 243 245 254 251 254 248 246 208 180 233 247 249 241 227
162 161 156 169 177 182 186 190 192 195 198 202 206 209 213 217 223 228 232 236 239 240 242 245 247 249 248 246 244 244 245 248 265 264 257 249 173 196 234 244 250 248 238
168 169 169 173 177 184 188 193 201 205 208 211 216 220 223 226 229 231 235 229 237 244 247 248 249 250 251 250 248 246 248 250 249 253 249 232 168 207 236 244 247 248 244
177 178 183 175 181 192 197 184 196 207 213 219 220 222 229 236 232 219 227 220 232 244 249 251 252 253 254 246 241 243 245 248 251 255 256 187 178 225 243 245 245 245 243
183 185 192 186 187 196 205 185 208 210 206 218 230 224 226 237 252 258 212 215 241 249 252 251 253 254 249 249 229 219 240 241 254 250 238 180 211 239 249 249 246 244 242
185 188 192 193 198 204 204 207 213 223 217 220 229 234 244 256 248 247 246 216 225 234 242 235 233 241 244 248 262 246 254 266 261 260 246 182 216 241 251 252 248 246 243
189 193 192 193 197 210 220 218 223 230 226 235 226 234 240 242 254 258 257 266 258 245 247 259 254 252 256 258 256 260 262 257 261 266 266 210 226 244 254 253 249 246 244
192 197 196 198 201 204 214 232 233 239 244 239 250 240 248 253 253 256 259 259 264 264 254 248 258 263 262 259 257 257 259 261 260 260 260 230 235 246 253 255 253 250 247
197 198 198 202 204 208 214 222 237 244 241 256 250 250 250 254 259 264 260 259 261 264 266 266 262 260 260 262 262 261 263 267 265 265 266 251 231 237 246 253 255 253 250
198 197 198 204 206 208 219 228 237 242 246 249 253 252 251 255 256 257 262 261 261 263 262 259 262 259 256 254 256 261 261 264 265 263 264 266 258 233 231 241 249 254 256
197 194 200 205 203 210 219 233 247 255 261 262 263 261 255 260 262 261 262 262 264 263 261 258 257 256 255 255 257 261 265 261 260 260 257 252 256 263 243 229 236 243 251
187 189 194 205 206 212 221 228 244 255 263 269 272 274 274 271 270 266 267 269 269 265 262 263 259 253 256 255 258 259 261 260 260 261 261 259 253 255 260 238 219 227 240
172 176 179 186 201 209 216 226 249 258 264 268 276 280 284 283 282 280 273 271 270 266 262 258 260 255 256 258 263 263 258 255 254 255 256 256 255 252 251 255 241 222 220
158 164 171 176 179 198 208 238 251 267 280 284 284 295 293 292 292 285 285 286 276 270 266 263 259 258 252 247 255 258 255 249 248 249 249 252 252 251 251 252 256 261 231
145 154 162 174 175 195 196 235 274 304 300 310 307 309 302 303 300 290 291 287 283 281 272 267 259 258 255 237 239 254 259 250 239 237 234 233 240 243 240 239 240 245 263
134 145 152 162 177 198 207 225 239 246 257 266 291 295 310 310 303 301 297 292 292 281 278 275 269 259 258 249 234 238 247 249 251 235 231 233 232 235 237 237 236 241 245
106 111 131 186 204 210 221 235 255 276 294 316 305 311 307 298 299 300 296 293 288 286 282 273 265 263 259 255 242 235 243 260 256 253 237 229 223 224 234 235 229 222 227
4 339 282 255 256 247 250 247 254 265 281 290 296 293 291 293 291 295 297 295 290 283 282 280 277 267 261 257 253 245 241 243 244 250 252 235 224 220 218 222 220 215 204
340 323 308 293 284 276 267 266 267 279 283 289 288 294 288 292 292 295 297 295 289 288 285 277 273 267 263 262 259 252 244 239 233 235 242 239 230 221 213 212 201 184 168